FIN412 EFHK-ESSA

Flight info

Callsign FIN412
Flight time N/A
Altitude 28000
Route ADIVO Y365 POGOK DCT RUNGA N872 XILAN
Aircraft A20N/M-SDE2E3FGHIRWXY/LB1

Departure

Time 2026-04-21 10:14
Airport Helsinki Vantaa Airport (EFHK)

Arrival

Time N/A
Airport Stockholm-Arlanda Airport (ESSA)
Time Latitude Longitude Altitude Speed Heading
2026-04-21 09:40 60.31943 24.96684 161 ft 0 kts 137°
2026-04-21 10:06 60.31952 24.96667 162 ft 2 kts 132°
2026-04-21 10:06 60.31960 24.96646 162 ft 2 kts 129°
2026-04-21 10:06 60.31968 24.96618 162 ft 2 kts 104°
2026-04-21 10:06 60.31970 24.96585 161 ft 2 kts 79°
2026-04-21 10:07 60.31964 24.96555 161 ft 2 kts 48°
2026-04-21 10:07 60.31961 24.96549 161 ft 0 kts 45°
2026-04-21 10:09 60.31971 24.96568 161 ft 6 kts 45°
2026-04-21 10:09 60.32013 24.96655 161 ft 11 kts 48°
2026-04-21 10:09 60.32070 24.96789 161 ft 14 kts 47°
2026-04-21 10:09 60.32084 24.96913 161 ft 10 kts 121°
2026-04-21 10:10 60.32019 24.96999 161 ft 13 kts 153°
2026-04-21 10:10 60.31939 24.97099 161 ft 11 kts 122°
2026-04-21 10:10 60.31917 24.97239 160 ft 12 kts 133°
2026-04-21 10:10 60.31837 24.97334 160 ft 15 kts 153°
2026-04-21 10:11 60.31733 24.97444 160 ft 19 kts 152°
2026-04-21 10:11 60.31587 24.97595 160 ft 27 kts 153°
2026-04-21 10:11 60.31412 24.97776 161 ft 30 kts 153°
2026-04-21 10:11 60.31224 24.97970 161 ft 31 kts 153°
2026-04-21 10:12 60.31025 24.98173 161 ft 33 kts 155°
2026-04-21 10:12 60.30811 24.98354 161 ft 34 kts 157°
2026-04-21 10:12 60.30665 24.98560 161 ft 21 kts 98°
2026-04-21 10:12 60.30758 24.98767 157 ft 22 kts 354°
2026-04-21 10:13 60.30826 24.98706 156 ft 0 kts 333°
2026-04-21 10:13 60.30892 24.98638 155 ft 43 kts 333°
2026-04-21 10:14 60.31423 24.98093 154 ft 124 kts 333°
2026-04-21 10:14 60.32286 24.97199 631 ft 142 kts 332°
2026-04-21 10:14 60.33022 24.95801 1378 ft 153 kts 301°
2026-04-21 10:14 60.33442 24.93745 2206 ft 166 kts 291°
2026-04-21 10:15 60.33799 24.91408 2932 ft 183 kts 289°
2026-04-21 10:15 60.34168 24.88792 3498 ft 206 kts 285°
2026-04-21 10:15 60.34329 24.85703 3795 ft 247 kts 269°
2026-04-21 10:15 60.33948 24.81962 3928 ft 281 kts 252°
2026-04-21 10:16 60.33183 24.78444 3990 ft 273 kts 245°
2026-04-21 10:16 60.32285 24.75164 3978 ft 267 kts 242°
2026-04-21 10:16 60.31483 24.72387 4033 ft 271 kts 242°
2026-04-21 10:16 60.30526 24.69065 4579 ft 276 kts 243°
2026-04-21 10:17 60.29853 24.65483 5651 ft 272 kts 261°
2026-04-21 10:17 60.29698 24.61787 6642 ft 274 kts 274°
2026-04-21 10:17 60.29723 24.57906 7545 ft 280 kts 274°
2026-04-21 10:17 60.29744 24.53949 8483 ft 285 kts 274°
2026-04-21 10:18 60.29757 24.49925 9428 ft 290 kts 274°
2026-04-21 10:18 60.29766 24.45809 10304 ft 296 kts 274°
2026-04-21 10:18 60.29775 24.41672 10879 ft 313 kts 274°
2026-04-21 10:18 60.29786 24.37112 11218 ft 336 kts 274°
2026-04-21 10:19 60.29790 24.32293 11798 ft 349 kts 274°
2026-04-21 10:19 60.29787 24.27365 12638 ft 354 kts 274°
2026-04-21 10:19 60.29782 24.22379 13498 ft 358 kts 274°
2026-04-21 10:19 60.29776 24.17325 14284 ft 363 kts 274°
2026-04-21 10:20 60.29771 24.12207 15023 ft 367 kts 274°
2026-04-21 10:20 60.29764 24.07023 15754 ft 372 kts 274°
2026-04-21 10:20 60.29755 24.01787 16498 ft 375 kts 273°
2026-04-21 10:20 60.29550 23.96492 17219 ft 383 kts 265°
2026-04-21 10:21 60.29015 23.91245 17910 ft 390 kts 261°
2026-04-21 10:21 60.28425 23.85891 18595 ft 394 kts 261°
2026-04-21 10:21 60.27835 23.80474 19218 ft 397 kts 261°
2026-04-21 10:21 60.27239 23.75005 19848 ft 401 kts 261°
2026-04-21 10:22 60.26637 23.69493 20447 ft 405 kts 261°
2026-04-21 10:22 60.26027 23.63928 21050 ft 409 kts 261°
2026-04-21 10:22 60.25439 23.58592 21628 ft 412 kts 261°
2026-04-21 10:22 60.24816 23.52964 22210 ft 416 kts 261°
2026-04-21 10:23 60.24296 23.48292 22700 ft 419 kts 261°
2026-04-21 10:23 60.23706 23.43002 23214 ft 423 kts 261°
2026-04-21 10:23 60.23055 23.37197 23794 ft 427 kts 261°
2026-04-21 10:23 60.22397 23.31351 24279 ft 430 kts 261°
2026-04-21 10:24 60.21733 23.25470 24783 ft 433 kts 261°
2026-04-21 10:24 60.21058 23.19527 25239 ft 436 kts 261°
2026-04-21 10:24 60.20379 23.13567 25720 ft 439 kts 260°
2026-04-21 10:24 60.19691 23.07557 26180 ft 442 kts 260°
2026-04-21 10:25 60.19007 23.01602 26624 ft 445 kts 260°
2026-04-21 10:25 60.18302 22.95495 27055 ft 448 kts 260°
2026-04-21 10:25 60.17592 22.89369 27490 ft 451 kts 260°
2026-04-21 10:25 60.16875 22.83211 27900 ft 454 kts 260°
2026-04-21 10:26 60.16150 22.77014 28114 ft 457 kts 260°
2026-04-21 10:26 60.14684 22.64582 28259 ft 458 kts 260°
2026-04-21 10:27 60.13207 22.52147 28266 ft 458 kts 260°
2026-04-21 10:27 60.11718 22.39711 28260 ft 459 kts 259°
2026-04-21 10:28 60.10211 22.27264 28270 ft 459 kts 259°
2026-04-21 10:28 60.08692 22.14831 28269 ft 459 kts 259°
2026-04-21 10:29 60.07169 22.02477 28278 ft 460 kts 259°
2026-04-21 10:29 60.05627 21.90063 28290 ft 460 kts 259°
2026-04-21 10:30 60.04069 21.77634 28285 ft 460 kts 259°